Location: Altmatt
(47.1333°N, 8.7000°E)
Time: 02:51:26
(UTC+00:00)

USA 267 - Pass Details

Date: 13 July 2020
Orbit: 1102 x 1106 km, 123.0° (Epoch: 02 August)

Event Time Altitude Azimuth Distance (km) Brightness Sun altitude
Rises 20:58:31 0° 89° (E) 3,918 5.8 -13.1°
Reaches altitude 10° 21:01:07 10° 83° (E) 2,961 5.2 -13.4°
Maximum altitude 21:07:12 44° 15° (NNE) 1,497 4.3 -14.0°
Drops below altitude 10° 21:13:18 10° 306° (NW) 2,968 6.7 -14.5°
Sets 21:15:54 0° 300° (WNW) 3,927 7.3 -14.8°
